JAISAT-1 (44419 NORAD) Tracking and Keplerian Element Data

This shows tracking and keplerian element data for the satellite.

Feedback or suggestion? Click here.




ElementValue
Catalog44419
NameJAISAT-1
Epoch Orbit2393
Epoch Day344.83089488
Epoch Year2019
RAAN304.0112
Inclination97.513
Eccentricity0.0023297
Argument of Perigee65.8852
Mean Anonmoly294.4812
Mean Motion15.12464671
Decay Rate6.84E-06
L11 44419U 19038F 19344.83089488 .00000684 00000-0 42858-4 0 9991
L22 44419 97.5130 304.0112 0023297 65.8852 294.4812 15.12464671 23931

Live tracking and technical data element details for JAISAT-1 (NORAD 44419). JAISAT-1 can be tracked NOW for your location showing map with azimuth and elevation plus other details from your city location.

Track the satellite on the map from your city or location and see movement details for azimuth, elevation, latitude, longitude, range, height, and movement on the map or in text.







IsCatalogInMostPopularTable: catalog: 44419, numindb: 26
Update: records affected: 1



GetName: 44419 JAISAT-1

Hit Count: updated at: Thu, 12 Dec 2019 00:52:30 GMT